Вернуться в каталог

CZ-3B R/B

АктивенGTO
NORAD 64471·ROCKET BODY·🇨🇳 China

Запущен Jun 20, 2025 с Xichang Satellite Launch Center

Loading…

TLE

УстаревшееSource: Space-Track

Эпоха: Sep 11, 2026, 08:52 UTC

1 64471U 25132B   26254.36969349  .00005763  00000-0  13311-2 0  9995
2 64471  27.7709 286.9882 7216144  95.8391 342.6178  2.36878936 10340

Отслеживайте CZ-3B R/B в реальном времени с AllMySat

Download on the App Store